Flag for Colombia Weather past 2 weeks in Manizales, Colombia

Now
68 °F

Scattered showers. Scattered clouds.


Feels Like: 68 °F
Forecast: 54 / 69 °F
Wind: 16 mph from Southeast

Location: Pereira / Matecana

Current Time: Apr 18, 2015 at 7:03:46 PM

Latest Report: Apr 18, 2015 at 6:00 PM


Visibility: N/A

Pressure: 29.96 "Hg

Humidity: 83%

Dew point: 63 °F

Location of ManizalesLocation

Historic Weather in Manizales — Graph

°F

Manizales temperature yesterday

Maximum temperature yesterday: 79 °F (at 4:00 PM)
Minimum temperature yesterday: 63 °F (at 5:00 AM)
Average temperature yesterday: 69 °F

Past Weeks' High & Low Weather Summary

 TemperatureHumidityPressure
High86 °F (Apr 10, 4:00 PM)100% (Apr 4, 8:00 AM)30.18 "Hg (Apr 4, 8:00 AM)
Low63 °F (Apr 15, 7:00 AM)52% (Apr 10, 4:00 PM)29.82 "Hg (Apr 7, 9:58 AM)
Average72 °F80%30.02 "Hg
* Reported Apr 3 5:00 PM — Apr 18 5:00 PM, Manizales, Weather by CustomWeather, © 2015

Note: Actual official high and low records may vary slightly from our data, if they occured in-between our weather recording intervals... More about our weather records

Advertising

Manizales weather history for previous 24 hours

 ConditionsComfort  
Time TempWeatherWind HumidityBarometerVisibility
5:00 PM
Sat, Apr 18
70 °FThunderstorms. Scattered clouds.12 mph78%29.94 "Hg5 mi
4:00 PM79 °FScattered showers. Scattered clouds.14 mph58%29.92 "HgN/A
3:00 PM84 °FPassing clouds.6 mph55%29.93 "HgN/A
2:00 PM82 °FScattered clouds.2 mph58%29.98 "HgN/A
1:00 PM82 °FScattered clouds.6 mph62%30.03 "HgN/A
12:00 PM81 °FScattered clouds.5 mph66%30.06 "HgN/A
11:00 AM79 °FScattered clouds.8 mph70%30.09 "HgN/A
10:00 AM75 °FScattered clouds.2 mph74%30.12 "HgN/A
9:00 AM72 °FPassing clouds.2 mph83%30.12 "HgN/A
8:00 AM70 °FScattered clouds.3 mph83%30.11 "HgN/A
7:00 AM68 °FScattered clouds.5 mph88%30.09 "HgN/A
6:00 AM66 °FScattered clouds.7 mph94%30.06 "HgN/A
5:00 AM66 °FPassing clouds.8 mph94%30.05 "HgN/A
12:00 AM66 °FPassing clouds.8 mph83%30.08 "HgN/A
11:00 PM
Fri, Apr 17
66 °FPassing clouds.9 mph83%30.10 "HgN/A
10:00 PM66 °FPassing clouds.12 mph88%30.10 "HgN/A
9:00 PM66 °FPassing clouds.9 mph88%30.09 "HgN/A
8:00 PM66 °FLight rain. Passing clouds.10 mph88%30.06 "HgN/A
7:00 PM68 °FPassing clouds.14 mph83%30.03 "HgN/A
Weather by CustomWeather, © 2015

See weather overviewHow to use our weather pages